Vorticity
16 11 1 11 14 17 12 10 12 7 6 4 1 -0 2 6 11 9 2 18 9 5
7 11 20 12 6 5 7 6 6 4 2 2 3 4 5 11 15 10 9 8 13 5
-3 3 3 8 15 8 5 5 4 5 3 5 5 10 15 17 15 5 12 5 24 8
4 6 8 9 -1 7 7 3 1 2 4 7 10 11 15 14 13 6 11 11 3 22
11 6 7 11 15 17 14 18 19 15 12 7 7 8 14 13 10 8 5 5 15 19
22 24 15 5 4 1 6 7 9 17 17 10 8 5 11 11 10 10 8 10 14 24
27 23 14 16 13 9 13 19 16 14 12 10 11 11 7 6 7 5 13 17 17 6
5 6 13 18 20 21 17 8 4 14 10 4 4 4 4 2 3 5 5 10 13 13
9 7 10 9 11 14 15 19 14 10 4 7 8 12 11 8 9 5 9 18 11 6
7 14 13 13 5 4 12 17 15 15 12 13 9 11 8 8 9 9 14 9 14 18
-7 2 0 -4 11 13 12 7 6 8 9 13 11 7 11 7 4 8 7 9 1 11
1 3 2 12 4 2 13 11 14 14 8 6 4 8 10 12 9 3 19 19 18 22
16 13 8 -5 4 10 11 5 7 7 14 14 12 13 22 16 9 9 9 37 -5 10
13 17 11 12 13 2 6 8 6 5 5 2 13 8 7 15 27 9 21 9 10 7
Height
3098 3098 3102 3104 3108 3110 3113 3115 3120 3122 3124 3126 3128 3129 3129 3129 3130 3131 3132 3132 3133 3134
3083 3084 3088 3094 3098 3101 3102 3103 3104 3109 3113 3115 3118 3119 3120 3118 3119 3120 3121 3122 3122 3123
3073 3075 3078 3083 3087 3091 3095 3096 3095 3095 3098 3101 3105 3107 3108 3107 3108 3108 3110 3111 3111 3111
3067 3068 3072 3074 3076 3079 3083 3086 3087 3087 3087 3090 3092 3094 3095 3095 3096 3096 3098 3100 3101 3101
3059 3060 3062 3063 3065 3067 3071 3075 3077 3078 3078 3079 3082 3084 3084 3085 3084 3086 3087 3089 3090 3091
3048 3052 3054 3055 3056 3059 3061 3062 3064 3067 3068 3069 3072 3074 3073 3073 3074 3076 3077 3078 3080 3081
3039 3041 3043 3046 3048 3049 3050 3053 3055 3057 3058 3059 3060 3062 3064 3063 3064 3066 3067 3068 3069 3072
3030 3031 3033 3036 3036 3038 3040 3041 3044 3046 3047 3048 3050 3052 3053 3054 3054 3056 3058 3058 3059 3061
3023 3024 3025 3026 3026 3027 3029 3031 3032 3034 3036 3036 3039 3041 3042 3043 3043 3045 3046 3047 3050 3052
3015 3016 3017 3018 3018 3018 3019 3020 3021 3023 3024 3026 3027 3028 3031 3032 3032 3032 3033 3036 3038 3040
3006 3007 3008 3010 3011 3011 3011 3011 3012 3013 3013 3013 3015 3017 3018 3019 3020 3021 3022 3023 3027 3028
2994 2995 2997 2999 3000 3002 3002 3002 3002 3002 3003 3003 3004 3005 3006 3006 3008 3010 3010 3011 3014 3016
2981 2982 2982 2984 2987 2989 2990 2991 2991 2991 2992 2992 2993 2994 2994 2995 2996 2998 2999 2998 3003 3006
2967 2967 2968 2968 2969 2972 2975 2977 2978 2979 2981 2981 2982 2982 2982 2984 2985 2987 2988 2990 2992 2995